Simultaneous Nadir Overpasses (SNOs) Predictions

Prediction of SNOs between METOP-B and NOAA-19 Satellite Orbit:

Table of predicted SNOs for the next 14.0 days since TLE Epoch: 2/24/2017
Index Date (METOP-B) Time (METOP-B) Lat,Lon (METOP-B) SZA (METOP-B ) Date (NOAA-19) Time (NOAA-19) Lat,Lon (NOAA-19) SZA (NOAA-19 ) Distance(km) Time Diff (sec)
1 02/27/2017 03:30:19 -76.88, -48.94 94.91 02/27/2017 03:29:06 -76.89, -48.97 94.90 1.31 73
2 02/27/2017 04:21:00 76.85, 118.30 85.06 02/27/2017 04:20:10 76.85, 118.42 85.06 3.27 50
3 02/27/2017 05:11:41 -76.86, -74.35 94.95 02/27/2017 05:11:07 -76.86, -74.35 94.95 0.37 34
4 02/27/2017 06:02:22 76.83, 92.88 85.02 02/27/2017 06:02:12 76.86, 92.87 85.04 2.78 10
5 02/27/2017 06:53:03 -76.84, -99.76 95.00 02/27/2017 06:53:08 -76.83, -99.72 95.01 1.96 5
6 02/27/2017 07:43:44 76.82, 67.47 84.97 02/27/2017 07:44:13 76.83, 67.49 84.98 1.49 29
7 02/27/2017 08:34:25 -76.82,-125.17 95.04 02/27/2017 08:35:10 -76.84,-125.28 95.03 3.19 45
8 02/27/2017 09:25:06 76.80, 42.06 84.93 02/27/2017 09:26:14 76.80, 42.12 84.93 1.55 68
9 02/27/2017 10:15:56 -76.40,-152.10 95.49 02/27/2017 10:17:02 -76.42,-149.08 95.46 79.08 66
10 03/09/2017 21:07:35 76.90,-133.18 80.99 03/09/2017 21:06:26 76.92,-133.18 81.01 2.80 69
11 03/09/2017 21:58:16 -76.92, 34.21 99.01 03/09/2017 21:57:21 -76.91, 34.15 99.02 1.65 55
12 03/09/2017 22:48:57 76.88,-158.60 80.94 03/09/2017 22:48:27 76.89,-158.55 80.96 1.91 30
13 03/09/2017 23:39:38 -76.90, 8.80 99.06 03/09/2017 23:39:22 -76.88, 8.78 99.08 2.01 16
14 03/10/2017 00:30:19 76.86, 175.99 80.90 03/10/2017 00:30:28 76.86, 176.07 80.90 2.11 9
15 03/10/2017 01:21:00 -76.88, -16.61 99.11 03/10/2017 01:21:23 -76.85, -16.60 99.13 3.19 23
16 03/10/2017 02:11:41 76.84, 150.58 80.85 03/10/2017 02:12:29 76.83, 150.70 80.84 3.19 48
17 03/10/2017 03:02:22 -76.86, -42.03 99.15 03/10/2017 03:03:25 -76.86, -42.16 99.15 3.44 63




NCC Satellite Simultaneous Nadir Overpasses (SNOs) Prediction Service
